Regional Weather Roundup
Issued by NWS

Home | Current Version | Previous Version | Graphics & Text | Print | Product List | Glossary On
Versions: 1 2 3 4 5 6 7 8 9 10 11 12 13 14 15 16 17 18 19 20 21 22 23 24 25 26 27 28 29 30 31 32 33 34 35 36 37 38 39 40 41 42 43 44 45 46 47 48 49 50
000
ASUS43 KFSD 261202
RWRSD

WEATHER ROUNDUP FOR SOUTH DAKOTA
NATIONAL WEATHER SERVICE SIOUX FALLS SD
700 AM CDT THU MAY 26 2016

NOTE: "FAIR" INDICATES FEW OR NO CLOUDS BELOW 12,000 FEET WITH NO
SIGNIFICANT WEATHER AND/OR OBSTRUCTIONS TO VISIBILITY.


SDZ001>005-009-010-012>017-261300-
NORTHWEST AND NORTH CENTRAL SOUTH DAKOTA

CITY           SKY/WX    TMP DP  RH WIND       PRES   REMARKS
BUFFALO          N/A     42  39  89 SW6       29.82R
FAITH            N/A     48  41  76 W7        29.85S
MOBRIDGE       CLEAR     50  45  83 CALM      29.82R
$$

SDZ012>016-024>037-041>051-057-063-072>074-261300-
SOUTHWEST AND SOUTH CENTRAL SOUTH DAKOTA

CITY           SKY/WX    TMP DP  RH WIND       PRES   REMARKS
RAPID CTY ARPT CLEAR     47  42  83 NW8       29.90R
PIERRE         CLEAR     50  48  93 SW6       29.85R
CUSTER         CLEAR     39  36  89 NW3       29.97R
ELLSWORTH AFB  CLEAR     49  45  83 N13       29.90R
PHILIP         CLEAR     45  43  93 SW3       29.87R
PINE RIDGE     CLEAR     40  37  89 NW3       29.91S
WINNER         FAIR      53  49  86 CALM      29.87S
$$

SDZ004>011-016>023-039-040-261300-
NORTHEAST SOUTH DAKOTA

CITY           SKY/WX    TMP DP  RH WIND       PRES   REMARKS
ABERDEEN       CLEAR     50  47  89 SE3       29.85R
WATERTOWN      SUNNY     56  49  77 W9        29.84R
BROOKINGS      SUNNY     53  50  89 NW8       29.85S
SISSETON         N/A     57  51  80 W14       29.78S
$$

SDZ017-020-022-023-036>040-048>070-261300-
SOUTHEAST SOUTH DAKOTA

CITY           SKY/WX    TMP DP  RH WIND       PRES   REMARKS
SIOUX FALLS    MOSUNNY   56  51  84 N5        29.85R
HURON          CLEAR     54  51  90 CALM      29.86R
MITCHELL       CLEAR     56  52  86 W5        29.88R
YANKTON        CLEAR     55  52  88 SW5       29.86R
$$

ABBREVIATIONS USED IN REMARKS
   TC - TEMPERATURE IN CELSIUS
  WCI - WIND CHILL INDEX
   HX - HEAT INDEX
  VSB - VISIBILITY





USA.gov is the U.S. government's official web portal to all federal, state and local government web resources and services.